Showing default

S6 MICHAEL FREILICH, 46984

Orbit data source: Space-Track

S6 MICHAEL FREILICH, 46984 is an ESA payload satellite in LEO that was launched on Sat, 21 Nov 2020 UTC via an FALCON 9 launch vehicle from the Air Force Western Test Range (AFWTR). Payload-class satellites include a variety of spacecraft equipped with specific instruments for various scientific and technological missions. These include communications satellites like Starlink; space stations such as the ISS; scientific satellites like the Hubble; Earth observation satellites from companies like Planet Labs, Umbra, and HawkEye 360; GPS; miniature CubeSats for education and research; and military/defense satellites.

Loading next visibility...
Identifier
46984, 2020-086A
Orbit
LEO
Country
Flag of ESAESA
Related business
Manufacturer
Airbus/DF
Mission
Operational Civil Earth Obs Sci
Bus & Motor
FLEXBUS, AOCS 2X40MN
Mass
1,192 kg wet, ~962 kg dry
Launch date (UTC)
2020-11-21 (6 years ago)
Launch vehicle
FALCON 9
Launch site
Air Force Western Test Range (AFWTR)
Object type
Payload
Rocket body
Debris
Shape & HBR
Hex Box, 2.0 m
Radar Cross Section
22.155 m², Large (>1 m²)

Expand to show TLE details & history
Last TLE update: 2 days ago

TLE from 2 days ago
0 S6 MICHAEL FREILICH
1 46984U 20086A   26171.28659686 -.00000041  00000-0  86498-4 0  9999
2 46984  66.0398 128.6148 0007932 270.1789  89.8317 12.80930002260728
Epoch: 2026-06-20T06:52Z
TLE epoch observation values (Epoch: 2026-06-20T06:52:41.968Z)
Latitude
-0.00005°
Longitude
116.93651°
Altitude
1,339.63 km
Speed
7.188 km/s
True Right ascension
08h 34m 27s
True Declination
0° 00' 00"
Sunlit
Object was in daylight at epoch
Visualization orbit readout
Latitude
Unknown
Longitude
Unknown
Altitude
Unknown
Speed
Unknown
Apparent Right ascension
Unknown
Apparent Declination
Unknown
Sunlit
N/A
Visualization observer readout
Local Sidereal Time
21:28:50
Azimuth
Unknown
Elevation
Unknown
Doppler factor
Unknown
Orbital elements
Apogee altitude
1,342.415 km
Perigee altitude
1,330.177 km
Semi-major axis
7,714.433 km
Eccentricity
0.00079
Inclination
66.0398°
RAAN
128.6148°
Arg. of periapsis
270.1789°
True anomaly
89.92259°
Mean anomaly
89.8317°
Eccentric anomaly
89.87715°
Mean motion
3.20322 °/min
Orbital period
112.39 mins
BSTAR
0.000086498
Loading maneuver chart data...
Computing Atmospheric mass density...
Loading historical data...
Loading historical data...
Loading historical data...
Loading historical data...
Loading historical data...
Loading historical data...
Loading historical data...
Other satellites on launch #86 in the year 2020 (2020-11-21 UTC)

Documentation

Showing up to 5 results
|